Regional Weather Roundup
Issued by NWS

Home | Current Version | Previous Version | Graphics & Text | Print | Product List | Glossary On
Versions: 1 2 3 4 5 6 7 8 9 10 11 12 13 14 15 16 17 18 19 20 21 22 23 24 25 26 27 28 29 30 31 32 33 34 35 36 37 38 39 40 41 42 43 44 45 46 47 48 49 50
000
ASUS43 KLOT 042000
RWRIL

ILLINOIS REGIONAL WEATHER ROUNDUP
NATIONAL WEATHER SERVICE CHICAGO/ROMEOVILLE IL
300 PM CDT SAT JUL 04 2015

NOTE: "FAIR" INDICATES FEW OR NO CLOUDS BELOW 12,000 FEET WITH NO
SIGNIFICANT WEATHER AND/OR OBSTRUCTIONS TO VISIBILITY.

* THESE STATIONS ARE NOT UNDER NWS QUALITY CONTROL. THEY ALSO MAY NOT
  REPORT WEATHER SUCH AS PRECIPITATION OR FOG.

ILZ001-002-007-009-015-016-024-042100-
NORTHWEST ILLINOIS

CITY           SKY/WX    TMP DP  RH WIND       PRES   REMARKS
MOLINE         SUNNY     80  60  50 MISG      30.00F HX  81
STERLING*      SUNNY     81  61  50 S7        30.01S HX  81
$$

ILZ003-004-008-010-011-017-018-042100-
NORTH CENTRAL ILLINOIS

CITY           SKY/WX    TMP DP  RH WIND       PRES   REMARKS
ROCKFORD       PTSUNNY   80  60  50 W7        30.01F HX  81
$$

ILZ005-006-012>014-019>023-042100-
NORTHEAST ILLINOIS

CITY           SKY/WX    TMP DP  RH WIND       PRES   REMARKS
CHICAGO-OHARE  MOSUNNY   79  55  43 VRB5      29.99F
CHICAGO-MIDWAY MOSUNNY   82  57  42 SW8       29.99S HX  82
AURORA         SUNNY     80  57  45 SW3       30.02S HX  80
WAUKEGAN       SUNNY     75  58  55 SE10      30.00S
DUPAGE AIRPORT SUNNY     79  54  41 VRB5      30.00S
WHEELING       SUNNY     81  54  39 S3        30.01S HX  81
NORTHERLY ISL    N/A     70  58  65 E3          N/A
$$

LMZ740>746-042100-
SOUTHERN LAKE MICHIGAN

STATION/POSITION SKY/WX   TEMP    WIND        PRES    VSBY  WAVE
                          AIR SEA DIR/SP/G                  HT/PER
                          (F)     (DEG/KT/KT) (MB)    (MI)  (FT/S)
HARRISON CRIB              67      90/ 10/ 11   N/A
BURNHAM HARBOR             70      80/  3/  5   N/A
CALUMET HARBOR             70      70/  8/ 10   N/A
BURNS HARBOR               71      50/  7/  8 1016.9S
MICHIGAN CITY              70     360/  4/  4   N/A
MICHIGAN CITY 6N           68 66   20/  4/  4   N/A           0
ST. JOSEPH                 66 66                N/A           0
$$

ILZ025>027-034>036-040-047-049-050-058-095>099-042100-
WEST-CENTRAL ILLINOIS

CITY           SKY/WX    TMP DP  RH WIND       PRES   REMARKS
QUINCY         SUNNY     81  57  43 SW5       30.01F HX  81
$$

ILZ028>032-037-038-041>044-048-051>054-059>061-042100-
CENTRAL ILLINOIS

CITY           SKY/WX    TMP DP  RH WIND       PRES   REMARKS
DECATUR        MOSUNNY   79  59  50 SE5       30.02F HX  80
PEORIA         SUNNY     81  58  45 CALM      30.01F HX  81
SPRINGFIELD    MOSUNNY   82  62  50 CALM      30.01F HX  83
TAYLORVILLE    NOT AVBL
$$

ILZ033-039-045-046-055>057-062-063-042100-
EAST-CENTRAL ILLINOIS

CITY           SKY/WX    TMP DP  RH WIND       PRES   REMARKS
CHAMPAIGN      SUNNY     79  59  50 VRB3      30.02F HX  80
RANTOUL*       PTSUNNY   80  61  52 CALM      30.02S HX  81
MATTOON        MOSUNNY   78  62  57 E3        30.01F HX  80
$$

ILZ079-100>102-042100-
SOUTHWEST ILLINOIS

CITY           SKY/WX    TMP DP  RH WIND       PRES   REMARKS
BELLEVILLE     MOSUNNY   81  63  54 E6        29.98F HX  82
CAHOKIA*       SUNNY     83  59  44 CALM      29.99F HX  83
$$

ILZ064>066-069>071-074>076-080>082-084>086-088>090-092>094-042100-
SOUTH-CENTRAL ILLINOIS

CITY           SKY/WX    TMP DP  RH WIND       PRES   REMARKS
CARBONDALE     PTSUNNY   82  63  52 E5        29.98F HX  83
MARION         PTSUNNY   82  64  54 N7        30.00F HX  84
MT. VERNON     MOSUNNY   81  63  54 CALM      30.00F HX  82
$$

ILZ067-068-072-073-078-083-087-091-042100-
SOUTHEAST ILLINOIS

CITY           SKY/WX    TMP DP  RH WIND       PRES   REMARKS
LAWRENCEVILLE  PTSUNNY   81  65  58 CALM      30.00F HX  83
$$

ABBREVIATIONS USED IN REMARKS
   TC - TEMPERATURE IN CELSIUS
  WCI - WIND CHILL INDEX
   HX - HEAT INDEX
  VSB - VISIBILITY
$$




USA.gov is the U.S. government's official web portal to all federal, state and local government web resources and services.